| time (UTC) | temp F | wind direction | speed MPH | gust MPH | rain 1hr in | rain 24hr in | rain mn in | humidity % | barometer mb |
| 20260505211304 | 60 | 208 | 1.0 | 2.0 | 0.00 | 0.00 | 0.00 | 74 | 1018.4 |
| 20260505210800 | 60 | 206 | 0.0 | 1.0 | 0.00 | 0.00 | 0.00 | 75 | 1018.5 |
| 20260505210258 | 59 | 225 | 1.0 | 2.0 | 0.00 | 0.00 | 0.00 | 76 | 1018.3 |
| 20260505205754 | 59 | 202 | 0.0 | 2.0 | 0.00 | 0.00 | 0.00 | 78 | 1018.6 |
| 20260505205253 | 59 | 206 | 1.0 | 1.0 | 0.00 | 0.00 | 0.00 | 79 | 1018.7 |
| 20260505204749 | 59 | 240 | 0.0 | 2.0 | 0.00 | 0.00 | 0.00 | 79 | 1018.5 |
| 20260505204247 | 59 | 234 | 0.0 | 1.0 | 0.00 | 0.00 | 0.00 | 78 | 1018.6 |
| 20260505203744 | 58 | 209 | 0.0 | 2.0 | 0.00 | 0.00 | 0.00 | 80 | 1018.5 |
| 20260505203241 | 59 | 227 | 1.0 | 3.0 | 0.00 | 0.00 | 0.00 | 79 | 1018.6 |
| 20260505202737 | 59 | 217 | 1.0 | 2.0 | 0.00 | 0.00 | 0.00 | 79 | 1018.6 |
| 20260505202233 | 59 | 204 | 1.0 | 1.0 | 0.00 | 0.00 | 0.00 | 78 | 1018.5 |
| 20260505201729 | 59 | 205 | 1.0 | 2.0 | 0.00 | 0.00 | 0.00 | 78 | 1018.7 |
| 20260505201228 | 59 | 200 | 0.0 | 1.0 | 0.00 | 0.00 | 0.00 | 78 | 1018.7 |
| 20260505200726 | 59 | 220 | 1.0 | 1.0 | 0.00 | 0.00 | 0.00 | 79 | 1018.8 |
| 20260505200222 | 59 | 268 | 1.0 | 2.0 | 0.00 | 0.00 | 0.00 | 80 | 1018.7 |
| 20260505195718 | 58 | 313 | 1.0 | 2.0 | 0.00 | 0.00 | 0.00 | 81 | 1018.8 |
| 20260505195215 | 59 | 202 | 0.0 | 1.0 | 0.00 | 0.00 | 0.00 | 80 | 1018.7 |
| 20260505194713 | 58 | 203 | 0.0 | 1.0 | 0.00 | 0.00 | 0.00 | 82 | 1018.9 |
| 20260505194209 | 58 | 235 | 1.0 | 3.0 | 0.00 | 0.00 | 0.00 | 83 | 1018.7 |
| 20260505193705 | 58 | 250 | 1.0 | 1.0 | 0.00 | 0.00 | 0.00 | 82 | 1018.7 |
| 20260505193202 | 57 | 207 | 0.0 | 1.0 | 0.00 | 0.00 | 0.00 | 83 | 1018.6 |
| 20260505192701 | 57 | 211 | 0.0 | 2.0 | 0.00 | 0.00 | 0.00 | 84 | 1018.9 |
| 20260505192158 | 57 | 212 | 0.0 | 1.0 | 0.00 | 0.00 | 0.00 | 86 | 1018.8 |
| 20260505191656 | 57 | 206 | 0.0 | 0.0 | 0.00 | 0.00 | 0.00 | 85 | 1018.7 |
| 20260505191154 | 56 | 209 | 1.0 | 3.0 | 0.00 | 0.00 | 0.00 | 86 | 1018.8 |
| 20260505190650 | 56 | 209 | 0.0 | 4.0 | 0.00 | 0.00 | 0.00 | 86 | 1018.8 |
| 20260505190150 | 56 | 203 | 2.0 | 3.0 | 0.00 | 0.00 | 0.00 | 86 | 1018.6 |
| 20260505185647 | 56 | 216 | 2.0 | 2.0 | 0.00 | 0.00 | 0.00 | 85 | 1018.8 |
| 20260505185143 | 56 | 199 | 0.0 | 1.0 | 0.00 | 0.00 | 0.00 | 84 | 1018.8 |
| 20260505184640 | 56 | 208 | 0.0 | 1.0 | 0.00 | 0.00 | 0.00 | 85 | 1018.6 |
| 20260505184137 | 56 | 203 | 0.0 | 1.0 | 0.00 | 0.00 | 0.00 | 86 | 1018.8 |
| 20260505183634 | 56 | 206 | 0.0 | 0.0 | 0.00 | 0.00 | 0.00 | 88 | 1018.7 |
| 20260505183132 | 55 | 224 | 1.0 | 1.0 | 0.00 | 0.00 | 0.00 | 89 | 1018.9 |
| 20260505182627 | 55 | 230 | 2.0 | 3.0 | 0.00 | 0.00 | 0.00 | 88 | 1018.9 |
| 20260505182124 | 55 | 219 | 0.0 | 0.0 | 0.00 | 0.00 | 0.00 | 89 | 1018.8 |
| 20260505181621 | 55 | 300 | 1.0 | 3.0 | 0.00 | 0.00 | 0.00 | 89 | 1018.8 |
| 20260505181118 | 55 | 209 | 0.0 | 0.0 | 0.00 | 0.00 | 0.00 | 91 | 1018.8 |
| 20260505180614 | 55 | 223 | 0.0 | 2.0 | 0.00 | 0.00 | 0.00 | 90 | 1018.8 |
| 20260505180112 | 54 | 205 | 0.0 | 2.0 | 0.00 | 0.00 | 0.00 | 90 | 1018.8 |
| 20260505175608 | 54 | 210 | 0.0 | 1.0 | 0.00 | 0.00 | 0.00 | 90 | 1018.7 |
| 20260505175104 | 54 | 210 | 0.0 | 0.0 | 0.00 | 0.00 | 0.00 | 92 | 1018.7 |
| 20260505174601 | 53 | 211 | 0.0 | 1.0 | 0.00 | 0.00 | 0.00 | 92 | 1018.8 |
| 20260505174057 | 54 | 221 | 1.0 | 3.0 | 0.00 | 0.00 | 0.00 | 91 | 1018.7 |
| 20260505173554 | 53 | 209 | 0.0 | 0.0 | 0.00 | 0.00 | 0.00 | 92 | 1018.7 |
| 20260505173051 | 54 | 202 | 0.0 | 1.0 | 0.00 | 0.00 | 0.00 | 91 | 1018.7 |
| 20260505172548 | 54 | 205 | 0.0 | 2.0 | 0.00 | 0.00 | 0.00 | 92 | 1018.7 |
| 20260505172045 | 54 | 199 | 0.0 | 1.0 | 0.00 | 0.00 | 0.00 | 92 | 1018.6 |
| 20260505171545 | 54 | 209 | 0.0 | 1.0 | 0.00 | 0.00 | 0.00 | 92 | 1018.5 |
| 20260505171042 | 54 | 197 | 0.0 | 1.0 | 0.00 | 0.00 | 0.00 | 92 | 1018.5 |
| 20260505170539 | 54 | 221 | 0.0 | 1.0 | 0.00 | 0.00 | 0.00 | 92 | 1018.5 |
| 20260505170035 | 53 | 205 | 0.0 | 0.0 | 0.00 | 0.00 | 0.00 | 93 | 1018.5 |
| 20260505165530 | 53 | 202 | 0.0 | 0.0 | 0.00 | 0.00 | 0.00 | 93 | 1018.4 |
| 20260505165026 | 53 | 202 | 0.0 | 0.0 | 0.00 | 0.00 | 0.00 | 95 | 1018.4 |
| 20260505164522 | 52 | 207 | 0.0 | 0.0 | 0.00 | 0.00 | 0.00 | 94 | 1018.5 |
| 20260505164021 | 52 | 205 | 0.0 | 0.0 | 0.00 | 0.00 | 0.00 | 94 | 1018.5 |
| 20260505163519 | 52 | 216 | 0.0 | 1.0 | 0.00 | 0.00 | 0.00 | 94 | 1018.4 |
| 20260505163015 | 52 | 208 | 0.0 | 1.0 | 0.00 | 0.00 | 0.00 | 94 | 1018.2 |
| 20260505162508 | 52 | 207 | 0.0 | 0.0 | 0.00 | 0.00 | 0.00 | 95 | 1018.3 |
| 20260505162006 | 52 | 200 | 0.0 | 1.0 | 0.00 | 0.00 | 0.00 | 95 | 1018.3 |
| 20260505161502 | 52 | 203 | 0.0 | 1.0 | 0.00 | 0.00 | 0.00 | 95 | 1018.3 |
| 20260505160959 | 52 | 210 | 0.0 | 2.0 | 0.00 | 0.00 | 0.00 | 96 | 1018.2 |
| 20260505160457 | 52 | 212 | 1.0 | 2.0 | 0.00 | 0.00 | 0.00 | 96 | 1018.2 |
| 20260505152934 | 51 | 209 | 1.0 | 2.0 | 0.00 | 0.00 | 0.00 | 98 | 1018.3 |
| 20260505152426 | 51 | 199 | 1.0 | 2.0 | 0.00 | 0.00 | 0.00 | 98 | 1018.2 |
| 20260505151926 | 51 | 206 | 0.0 | 1.0 | 0.00 | 0.00 | 0.00 | 98 | 1018.1 |
| 20260505151421 | 51 | 210 | 1.0 | 1.0 | 0.00 | 0.00 | 0.00 | 98 | 1018.1 |
| 20260505150919 | 51 | 208 | 0.0 | 1.0 | 0.00 | 0.00 | 0.00 | 98 | 1018.1 |
| 20260505150416 | 51 | 206 | 0.0 | 1.0 | 0.00 | 0.00 | 0.00 | 98 | 1018.0 |
| 20260505140341 | 51 | 203 | 0.0 | 0.0 | 0.00 | 0.00 | 0.00 | 98 | 1017.5 |
| 20260505130304 | 51 | 204 | 0.0 | 0.0 | 0.00 | 0.00 | 0.00 | 96 | 1017.2 |
| 20260505124754 | 52 | 202 | 0.0 | 2.0 | 0.00 | 0.00 | 0.00 | 94 | 1017.2 |
| 20260505124251 | 52 | 212 | 0.0 | 1.0 | 0.00 | 0.00 | 0.00 | 93 | 1017.2 |
| 20260505123747 | 52 | 203 | 0.0 | 1.0 | 0.00 | 0.00 | 0.00 | 92 | 1017.1 |
| 20260505123244 | 53 | 251 | 2.0 | 2.0 | 0.00 | 0.00 | 0.00 | 92 | 1017.1 |
| 20260505122740 | 52 | 201 | 0.0 | 0.0 | 0.00 | 0.00 | 0.00 | 91 | 1017.1 |
| 20260505122237 | 53 | 202 | 1.0 | 1.0 | 0.00 | 0.00 | 0.00 | 90 | 1017.2 |
| 20260505121734 | 53 | 210 | 0.0 | 0.0 | 0.00 | 0.00 | 0.00 | 90 | 1017.0 |
| 20260505121231 | 53 | 200 | 0.0 | 0.0 | 0.00 | 0.00 | 0.00 | 89 | 1017.0 |
| 20260505120727 | 53 | 206 | 0.0 | 1.0 | 0.00 | 0.00 | 0.00 | 89 | 1016.9 |
| 20260505120223 | 53 | 203 | 0.0 | 0.0 | 0.00 | 0.00 | 0.00 | 88 | 1016.9 |
| 20260505115722 | 53 | 208 | 0.0 | 0.0 | 0.00 | 0.00 | 0.00 | 89 | 1016.9 |
| 20260505115220 | 53 | 207 | 0.0 | 1.0 | 0.00 | 0.00 | 0.00 | 88 | 1017.0 |
| 20260505114717 | 53 | 187 | 0.0 | 0.0 | 0.00 | 0.00 | 0.00 | 89 | 1016.9 |
| 20260505114213 | 53 | 206 | 0.0 | 0.0 | 0.00 | 0.00 | 0.00 | 89 | 1016.9 |
| 20260505113710 | 53 | 200 | 0.0 | 0.0 | 0.00 | 0.00 | 0.00 | 88 | 1016.9 |
| 20260505113206 | 53 | 204 | 0.0 | 0.0 | 0.00 | 0.00 | 0.00 | 89 | 1016.9 |
| 20260505112703 | 53 | 194 | 0.0 | 0.0 | 0.00 | 0.00 | 0.00 | 89 | 1016.9 |
| 20260505112201 | 53 | 203 | 0.0 | 1.0 | 0.00 | 0.00 | 0.00 | 88 | 1017.0 |
| 20260505111700 | 53 | 204 | 0.0 | 0.0 | 0.00 | 0.00 | 0.00 | 88 | 1017.1 |
| 20260505111156 | 53 | 211 | 0.0 | 1.0 | 0.00 | 0.00 | 0.00 | 88 | 1016.9 |
| 20260505110652 | 53 | 202 | 0.0 | 0.0 | 0.00 | 0.00 | 0.00 | 88 | 1016.8 |
| 20260505110150 | 53 | 201 | 0.0 | 1.0 | 0.00 | 0.00 | 0.00 | 88 | 1016.6 |
| 20260505102125 | 53 | 203 | 0.0 | 1.0 | 0.00 | 0.00 | 0.00 | 88 | 1016.6 |
| 20260505101624 | 53 | 192 | 0.0 | 1.0 | 0.00 | 0.00 | 0.00 | 88 | 1016.5 |
| 20260505101120 | 53 | 204 | 0.0 | 0.0 | 0.00 | 0.00 | 0.00 | 88 | 1016.4 |
| 20260505100616 | 53 | 187 | 0.0 | 1.0 | 0.00 | 0.00 | 0.00 | 87 | 1016.7 |
| 20260505100113 | 53 | 205 | 0.0 | 1.0 | 0.00 | 0.00 | 0.00 | 88 | 1016.6 |
| 20260505095609 | 53 | 206 | 1.0 | 2.0 | 0.00 | 0.00 | 0.00 | 88 | 1016.6 |
| 20260505095106 | 53 | 211 | 1.0 | 2.0 | 0.00 | 0.00 | 0.00 | 87 | 1016.5 |
| 20260505094603 | 54 | 203 | 0.0 | 2.0 | 0.00 | 0.00 | 0.00 | 87 | 1016.4 |
| 20260505094059 | 54 | 201 | 0.0 | 1.0 | 0.00 | 0.00 | 0.00 | 86 | 1016.6 |
| 20260505093555 | 54 | 205 | 1.0 | 1.0 | 0.00 | 0.00 | 0.00 | 86 | 1016.5 |
| 20260505093053 | 54 | 208 | 0.0 | 2.0 | 0.00 | 0.00 | 0.00 | 86 | 1016.5 |
| 20260505092550 | 55 | 203 | 0.0 | 1.0 | 0.00 | 0.00 | 0.00 | 86 | 1016.3 |
| 20260505092048 | 54 | 204 | 0.0 | 2.0 | 0.00 | 0.00 | 0.00 | 86 | 1016.3 |
| 20260505091545 | 54 | 203 | 0.0 | 0.0 | 0.00 | 0.00 | 0.00 | 86 | 1016.4 |
| 20260505091043 | 54 | 206 | 0.0 | 1.0 | 0.00 | 0.00 | 0.00 | 87 | 1016.3 |
| 20260505090541 | 54 | 209 | 0.0 | 2.0 | 0.00 | 0.00 | 0.00 | 86 | 1016.3 |
| 20260505090038 | 54 | 203 | 0.0 | 4.0 | 0.00 | 0.00 | 0.00 | 86 | 1016.2 |
| 20260505085536 | 54 | 202 | 1.0 | 1.0 | 0.00 | 0.00 | 0.00 | 86 | 1016.2 |
| 20260505085034 | 54 | 218 | 2.0 | 2.0 | 0.00 | 0.00 | 0.00 | 86 | 1016.1 |
| 20260505084532 | 54 | 234 | 1.0 | 2.0 | 0.00 | 0.00 | 0.00 | 86 | 1016.2 |
| 20260505084030 | 55 | 189 | 1.0 | 2.0 | 0.00 | 0.00 | 0.00 | 86 | 1016.1 |
| 20260505083526 | 55 | 201 | 0.0 | 1.0 | 0.00 | 0.00 | 0.00 | 86 | 1016.2 |
| 20260505083023 | 55 | 204 | 0.0 | 1.0 | 0.00 | 0.00 | 0.00 | 85 | 1016.1 |
| 20260505082519 | 55 | 212 | 0.0 | 1.0 | 0.00 | 0.00 | 0.00 | 85 | 1016.0 |
| 20260505082016 | 55 | 203 | 0.0 | 2.0 | 0.00 | 0.00 | 0.00 | 85 | 1016.0 |
| 20260505081512 | 55 | 206 | 0.0 | 1.0 | 0.00 | 0.00 | 0.00 | 85 | 1015.9 |
| 20260505081009 | 56 | 195 | 1.0 | 1.0 | 0.00 | 0.00 | 0.00 | 85 | 1015.9 |
| 20260505080506 | 56 | 224 | 1.0 | 2.0 | 0.00 | 0.00 | 0.00 | 84 | 1015.9 |
| 20260505080002 | 56 | 197 | 0.0 | 2.0 | 0.00 | 0.00 | 0.00 | 84 | 1016.0 |
| 20260505075458 | 56 | 199 | 1.0 | 1.0 | 0.00 | 0.00 | 0.00 | 84 | 1016.1 |
| 20260505074955 | 56 | 199 | 1.0 | 3.0 | 0.00 | 0.00 | 0.00 | 84 | 1015.9 |
| 20260505074453 | 56 | 194 | 1.0 | 3.0 | 0.00 | 0.00 | 0.00 | 84 | 1016.0 |
| 20260505073950 | 56 | 211 | 0.0 | 3.0 | 0.00 | 0.00 | 0.00 | 84 | 1015.6 |
| 20260505073447 | 56 | 205 | 2.0 | 6.0 | 0.00 | 0.00 | 0.00 | 83 | 1015.6 |
| 20260505072944 | 57 | 200 | 2.0 | 4.0 | 0.00 | 0.00 | 0.00 | 83 | 1015.6 |
| 20260505072440 | 57 | 229 | 1.0 | 2.0 | 0.00 | 0.00 | 0.00 | 82 | 1015.4 |
| 20260505071937 | 57 | 218 | 2.0 | 3.0 | 0.00 | 0.00 | 0.00 | 82 | 1015.4 |
| 20260505071433 | 57 | 210 | 1.0 | 2.0 | 0.00 | 0.00 | 0.00 | 81 | 1015.4 |
| 20260505070931 | 58 | 204 | 0.0 | 1.0 | 0.00 | 0.00 | 0.00 | 80 | 1015.3 |
| 20260505070427 | 58 | 201 | 0.0 | 1.0 | 0.00 | 0.00 | 0.00 | 80 | 1015.2 |
| 20260505065923 | 58 | 202 | 0.0 | 1.0 | 0.00 | 0.00 | 0.00 | 79 | 1015.3 |
| 20260505065420 | 58 | 204 | 0.0 | 1.0 | 0.00 | 0.00 | 0.00 | 79 | 1015.2 |
| 20260505064916 | 58 | 212 | 1.0 | 3.0 | 0.00 | 0.00 | 0.00 | 78 | 1015.0 |
| 20260505064414 | 59 | 251 | 3.0 | 3.0 | 0.00 | 0.00 | 0.00 | 78 | 1015.1 |
| 20260505063912 | 59 | 183 | 0.0 | 3.0 | 0.00 | 0.00 | 0.00 | 77 | 1015.4 |
| 20260505063408 | 59 | 202 | 1.0 | 1.0 | 0.00 | 0.00 | 0.00 | 76 | 1015.0 |
| 20260505062904 | 60 | 203 | 1.0 | 2.0 | 0.00 | 0.00 | 0.00 | 76 | 1015.1 |
| 20260505062402 | 60 | 200 | 4.0 | 4.0 | 0.00 | 0.00 | 0.00 | 75 | 1014.8 |
| 20260505061858 | 60 | 209 | 2.0 | 3.0 | 0.00 | 0.00 | 0.00 | 74 | 1015.0 |
| 20260505061357 | 61 | 207 | 1.0 | 3.0 | 0.00 | 0.00 | 0.00 | 74 | 1015.0 |
| 20260505060854 | 61 | 217 | 0.0 | 1.0 | 0.00 | 0.00 | 0.00 | 74 | 1014.8 |
| 20260505060351 | 61 | 187 | 1.0 | 4.0 | 0.00 | 0.00 | 0.00 | 74 | 1014.8 |
| 20260505055847 | 61 | 191 | 3.0 | 3.0 | 0.00 | 0.00 | 0.00 | 74 | 1014.8 |
| 20260505055342 | 62 | 205 | 1.0 | 1.0 | 0.00 | 0.00 | 0.00 | 75 | 1014.8 |
| 20260505054840 | 62 | 203 | 0.0 | 2.0 | 0.00 | 0.00 | 0.00 | 74 | 1014.9 |
| 20260505054337 | 62 | 197 | 0.0 | 2.0 | 0.00 | 0.00 | 0.00 | 74 | 1014.6 |
| 20260505053835 | 62 | 176 | 2.0 | 3.0 | 0.00 | 0.00 | 0.00 | 75 | 1014.4 |
| 20260505053332 | 62 | 202 | 0.0 | 3.0 | 0.00 | 0.00 | 0.00 | 75 | 1014.6 |
| 20260505052829 | 62 | 191 | 1.0 | 3.0 | 0.00 | 0.00 | 0.00 | 75 | 1014.6 |
| 20260505052325 | 63 | 208 | 0.0 | 2.0 | 0.00 | 0.00 | 0.00 | 75 | 1014.6 |
| 20260505051823 | 63 | 200 | 0.0 | 1.0 | 0.00 | 0.00 | 0.00 | 75 | 1014.5 |
| 20260505051320 | 63 | 203 | 1.0 | 3.0 | 0.00 | 0.00 | 0.00 | 75 | 1014.6 |
| 20260505050818 | 63 | 194 | 2.0 | 4.0 | 0.00 | 0.00 | 0.00 | 75 | 1014.5 |
| 20260505050317 | 64 | 200 | 1.0 | 2.0 | 0.00 | 0.00 | 0.00 | 76 | 1014.6 |
| 20260505041746 | 66 | 200 | 0.0 | 1.0 | 0.00 | 0.00 | 0.00 | 74 | 1013.9 |
| 20260505041243 | 66 | 201 | 0.0 | 0.0 | 0.00 | 0.00 | 0.00 | 73 | 1013.8 |
| 20260505040740 | 66 | 201 | 0.0 | 0.0 | 0.00 | 0.00 | 0.00 | 73 | 1013.7 |
| 20260505040238 | 66 | 200 | 0.0 | 0.0 | 0.00 | 0.00 | 0.00 | 74 | 1013.6 |
| 20260505035735 | 65 | 201 | 0.0 | 0.0 | 0.00 | 0.00 | 0.00 | 74 | 1013.6 |
| 20260505035230 | 65 | 197 | 0.0 | 0.0 | 0.00 | 0.00 | 0.00 | 74 | 1013.4 |
| 20260505034727 | 66 | 193 | 0.0 | 0.0 | 0.00 | 0.00 | 0.00 | 74 | 1013.5 |
| 20260505034224 | 66 | 195 | 0.0 | 0.0 | 0.00 | 0.00 | 0.00 | 74 | 1013.5 |
| 20260505033721 | 66 | 195 | 0.0 | 0.0 | 0.00 | 0.00 | 0.00 | 73 | 1013.4 |
| 20260505033219 | 66 | 193 | 0.0 | 1.0 | 0.00 | 0.00 | 0.00 | 73 | 1013.4 |
| 20260505032717 | 66 | 199 | 0.0 | 0.0 | 0.00 | 0.00 | 0.00 | 72 | 1013.2 |
| 20260505032212 | 67 | 193 | 0.0 | 0.0 | 0.00 | 0.00 | 0.00 | 72 | 1013.3 |
| 20260505031710 | 67 | 217 | 0.0 | 0.0 | 0.00 | 0.00 | 0.00 | 71 | 1013.2 |
| 20260505031206 | 67 | 197 | 0.0 | 2.0 | 0.00 | 0.00 | 0.00 | 71 | 1013.1 |
| 20260505030703 | 67 | 201 | 0.0 | 1.0 | 0.00 | 0.00 | 0.00 | 70 | 1013.1 |
| 20260505030159 | 68 | 197 | 0.0 | 3.0 | 0.00 | 0.00 | 0.00 | 69 | 1013.1 |
| 20260505025655 | 68 | 200 | 0.0 | 1.0 | 0.00 | 0.00 | 0.00 | 68 | 1013.1 |
| 20260505025153 | 69 | 214 | 0.0 | 1.0 | 0.00 | 0.00 | 0.00 | 67 | 1013.0 |
| 20260505024651 | 70 | 203 | 0.0 | 1.0 | 0.00 | 0.00 | 0.00 | 65 | 1013.0 |
| 20260505024147 | 70 | 200 | 1.0 | 2.0 | 0.00 | 0.00 | 0.00 | 64 | 1012.9 |
| 20260505023645 | 71 | 206 | 1.0 | 2.0 | 0.00 | 0.00 | 0.00 | 63 | 1012.8 |
| 20260505023142 | 72 | 205 | 0.0 | 1.0 | 0.00 | 0.00 | 0.00 | 61 | 1012.9 |
| 20260505022640 | 72 | 208 | 1.0 | 1.0 | 0.00 | 0.00 | 0.00 | 60 | 1013.0 |
| 20260505022137 | 72 | 204 | 0.0 | 1.0 | 0.00 | 0.00 | 0.00 | 60 | 1012.9 |
| 20260505021633 | 72 | 200 | 1.0 | 2.0 | 0.00 | 0.00 | 0.00 | 60 | 1012.9 |
| 20260505021130 | 72 | 213 | 0.0 | 2.0 | 0.00 | 0.00 | 0.00 | 61 | 1012.8 |
| 20260505020626 | 72 | 206 | 0.0 | 2.0 | 0.00 | 0.00 | 0.00 | 60 | 1012.8 |
| 20260505020122 | 72 | 205 | 1.0 | 2.0 | 0.00 | 0.00 | 0.00 | 59 | 1013.0 |
| 20260505015619 | 72 | 210 | 1.0 | 3.0 | 0.00 | 0.00 | 0.00 | 59 | 1012.9 |
| 20260505015116 | 72 | 189 | 1.0 | 2.0 | 0.00 | 0.00 | 0.00 | 59 | 1012.8 |
| 20260505014612 | 72 | 209 | 0.0 | 2.0 | 0.00 | 0.00 | 0.00 | 60 | 1012.9 |
| 20260505014110 | 73 | 224 | 1.0 | 2.0 | 0.00 | 0.00 | 0.00 | 58 | 1013.0 |
| 20260505013607 | 73 | 219 | 1.0 | 1.0 | 0.00 | 0.00 | 0.00 | 57 | 1013.1 |
| 20260505013104 | 73 | 279 | 1.0 | 2.0 | 0.00 | 0.00 | 0.00 | 58 | 1013.0 |
| 20260505012602 | 73 | 205 | 1.0 | 4.0 | 0.00 | 0.00 | 0.00 | 58 | 1013.1 |
| 20260505012059 | 74 | 209 | 1.0 | 3.0 | 0.00 | 0.00 | 0.00 | 56 | 1013.2 |
| 20260505011554 | 74 | 139 | 2.0 | 6.0 | 0.00 | 0.00 | 0.00 | 57 | 1013.3 |
| 20260505011052 | 74 | 209 | 0.0 | 3.0 | 0.00 | 0.00 | 0.00 | 56 | 1013.1 |
| 20260505010547 | 73 | 198 | 0.0 | 1.0 | 0.00 | 0.00 | 0.00 | 57 | 1013.3 |
| 20260505010044 | 73 | 192 | 0.0 | 3.0 | 0.00 | 0.00 | 0.00 | 58 | 1013.0 |
| 20260505005540 | 74 | 267 | 2.0 | 3.0 | 0.00 | 0.00 | 0.00 | 57 | 1013.2 |
| 20260505005038 | 73 | 198 | 0.0 | 3.0 | 0.00 | 0.00 | 0.00 | 57 | 1013.1 |
| 20260505004535 | 74 | 239 | 1.0 | 4.0 | 0.00 | 0.00 | 0.00 | 57 | 1013.2 |
| 20260505004032 | 75 | 201 | 0.0 | 2.0 | 0.00 | 0.00 | 0.00 | 55 | 1013.1 |
| 20260505003529 | 75 | 220 | 1.0 | 3.0 | 0.00 | 0.00 | 0.00 | 55 | 1013.3 |
| 20260505003026 | 75 | 202 | 1.0 | 3.0 | 0.00 | 0.00 | 0.00 | 55 | 1013.5 |
| 20260505002521 | 77 | 221 | 2.0 | 3.0 | 0.00 | 0.00 | 0.00 | 52 | 1013.5 |
| 20260505002020 | 73 | 203 | 0.0 | 4.0 | 0.00 | 0.00 | 0.00 | 55 | 1013.3 |
| 20260505001517 | 75 | 192 | 4.0 | 4.0 | 0.00 | 0.00 | 0.00 | 55 | 1013.2 |
| 20260505001014 | 74 | 197 | 0.0 | 3.0 | 0.00 | 0.00 | 0.00 | 56 | 1013.4 |
| 20260505000512 | 74 | 206 | 1.0 | 2.0 | 0.00 | 0.00 | 0.00 | 57 | 1013.5 |
| 20260505000009 | 73 | 230 | 2.0 | 4.0 | 0.00 | 0.00 | 0.00 | 56 | 1013.4 |
| 20260504235506 | 73 | 251 | 1.0 | 2.0 | 0.00 | 0.00 | 0.00 | 56 | 1013.5 |
| 20260504235002 | 74 | 206 | 1.0 | 3.0 | 0.00 | 0.00 | 0.00 | 55 | 1013.2 |
| 20260504234459 | 75 | 276 | 4.0 | 6.0 | 0.00 | 0.00 | 0.00 | 54 | 1013.2 |
| 20260504233956 | 74 | 202 | 1.0 | 3.0 | 0.00 | 0.00 | 0.00 | 56 | 1013.4 |
| 20260504233451 | 72 | 267 | 3.0 | 3.0 | 0.00 | 0.00 | 0.00 | 57 | 1013.5 |
| 20260504232949 | 73 | 227 | 2.0 | 3.0 | 0.00 | 0.00 | 0.00 | 56 | 1013.5 |
| 20260504232446 | 72 | 189 | 2.0 | 3.0 | 0.00 | 0.00 | 0.00 | 57 | 1013.5 |
| 20260504231943 | 73 | 237 | 1.0 | 4.0 | 0.00 | 0.00 | 0.00 | 55 | 1013.6 |
| 20260504231439 | 73 | 195 | 1.0 | 4.0 | 0.00 | 0.00 | 0.00 | 56 | 1013.6 |
| 20260504230935 | 71 | 224 | 1.0 | 6.0 | 0.00 | 0.00 | 0.00 | 58 | 1013.7 |
| 20260504230432 | 71 | 219 | 4.0 | 7.0 | 0.00 | 0.00 | 0.00 | 58 | 1013.7 |
| 20260504225932 | 72 | 203 | 2.0 | 3.0 | 0.00 | 0.00 | 0.00 | 58 | 1013.9 |
| 20260504225428 | 72 | 211 | 0.0 | 4.0 | 0.00 | 0.00 | 0.00 | 56 | 1013.8 |
| 20260504224925 | 71 | 255 | 4.0 | 7.0 | 0.00 | 0.00 | 0.00 | 59 | 1013.7 |
| 20260504224422 | 72 | 191 | 2.0 | 3.0 | 0.00 | 0.00 | 0.00 | 58 | 1013.8 |
| 20260504223919 | 70 | 291 | 3.0 | 4.0 | 0.00 | 0.00 | 0.00 | 61 | 1013.7 |
| 20260504223414 | 71 | 196 | 2.0 | 3.0 | 0.00 | 0.00 | 0.00 | 60 | 1014.0 |
| 20260504222911 | 71 | 187 | 2.0 | 4.0 | 0.00 | 0.00 | 0.00 | 60 | 1014.1 |
| 20260504222408 | 71 | 240 | 2.0 | 4.0 | 0.00 | 0.00 | 0.00 | 59 | 1014.0 |
| 20260504221906 | 72 | 199 | 2.0 | 4.0 | 0.00 | 0.00 | 0.00 | 58 | 1013.8 |
| 20260504221402 | 71 | 206 | 1.0 | 1.0 | 0.00 | 0.00 | 0.00 | 59 | 1014.1 |
| 20260504220900 | 71 | 237 | 2.0 | 2.0 | 0.00 | 0.00 | 0.00 | 59 | 1014.2 |
| 20260504220356 | 72 | 187 | 0.0 | 4.0 | 0.00 | 0.00 | 0.00 | 60 | 1014.4 |
| 20260504215853 | 71 | 202 | 2.0 | 3.0 | 0.00 | 0.00 | 0.00 | 59 | 1014.5 |
| 20260504215350 | 70 | 241 | 2.0 | 3.0 | 0.00 | 0.00 | 0.00 | 62 | 1014.3 |
| 20260504214846 | 70 | 228 | 1.0 | 3.0 | 0.00 | 0.00 | 0.00 | 60 | 1014.4 |
| 20260504214343 | 70 | 219 | 1.0 | 4.0 | 0.00 | 0.00 | 0.00 | 61 | 1014.6 |
| 20260504213840 | 68 | 206 | 0.0 | 2.0 | 0.00 | 0.00 | 0.00 | 64 | 1014.6 |
| 20260504213335 | 68 | 169 | 1.0 | 3.0 | 0.00 | 0.00 | 0.00 | 64 | 1014.6 |
| 20260504212833 | 70 | 211 | 2.0 | 3.0 | 0.00 | 0.00 | 0.00 | 62 | 1014.6 |
| 20260504212329 | 68 | 203 | 1.0 | 3.0 | 0.00 | 0.00 | 0.00 | 65 | 1014.8 |
| 20260504211827 | 67 | 206 | 1.0 | 2.0 | 0.00 | 0.00 | 0.00 | 64 | 1014.5 |